Location: West Chester
(39.9610°N, 75.6060°W)
Time: 20:13:11
(UTC-04:00)

ARIANE 6 FM1 Upper Stage - Pass Details

Date: 27 September 2024
Orbit: 563 x 594 km, 62.0° (Epoch: 11 October)

Event Time Altitude Azimuth Distance (km) Brightness Sun altitude
Rises 19:30:56 0° 243° (WSW) 2,770 7.3 -8.6°
Reaches altitude 10° 19:33:24 10° 255° (WSW) 1,882 6.7 -9.1°
Maximum altitude 19:37:05 28° 316° (NW) 1,106 4.8 -9.8°
Drops below altitude 10° 19:40:49 10° 16° (NNE) 1,910 5.3 -10.5°
Sets 19:43:21 0° 28° (NNE) 2,820 6.0 -11.0°
